Regional Weather Roundup
Issued by NWS Cleveland, OH

Home | Current Version | Previous Version | Graphics & Text | Print | Product List | Glossary On
Versions: 1 2 3 4 5 6 7 8 9 10 11 12 13 14 15 16 17 18 19 20 21 22 23 24 25 26 27 28 29 30 31 32 33 34 35 36 37 38 39 40 41 42 43 44 45 46 47 48 49 50
000
ASUS41 KCLE 310602
RWRCLE
OHIO REGIONAL WEATHER ROUNDUP
NATIONAL WEATHER SERVICE CLEVELAND, OH
100 AM EST SAT JAN 31 2015

NOTE: "FAIR" INDICATES FEW OR NO CLOUDS BELOW 12,000 FEET WITH NO
SIGNIFICANT WEATHER AND/OR OBSTRUCTIONS TO VISIBILITY.

OHZ001>008-015>018-024>027-034-035-043-044-310700-
   NORTHWEST OHIO

CITY           SKY/WX    TMP DP  RH WIND       PRES   REMARKS
DEFIANCE       CLEAR     15  11  83 S3        30.39F
FINDLAY        CLEAR     15   8  73 S6        30.38F WCI   6
TOLEDO EXPRESS PTCLDY    13   8  81 CALM      30.38F
TOLEDO EXEC    PTCLDY    16   9  74 S5        30.40F WCI   9
LIMA           CLEAR     15  10  80 S7        30.38F WCI   5
$$

OHZ009>014-019>023-028>033-038-089-310700-
   NORTHEAST OHIO

CITY           SKY/WX    TMP DP  RH WIND       PRES   REMARKS
CLE-HOPKINS    PTCLDY     6   2  83 S6        30.43F WCI  -4
CLE-LAKEFRONT  CLEAR     13   5  70 S7        30.41F WCI   3
CUY CO. ARPT   NOT AVBL
LORAIN-ELYRIA  PTCLDY     7   2  80 S5        30.40F WCI  -2
ASHTABULA      PTCLDY     3  -1  83 CALM      30.38F
AKRON-CANTON   MOCLDY     7   2  80 CALM      30.37F
WOOSTER        CLOUDY     0  -3  87 CALM      30.38F
MANSFIELD      PTCLDY     7   3  84 S5        30.36F WCI  -2
YOUNGSTOWN     PTCLDY     4   0  83 SW3       30.36F
$$

OHZ042-051>053-060>062-070>072-077>081-310700-
  SOUTHWEST OHIO

CITY           SKY/WX    TMP DP  RH WIND       PRES   REMARKS
CINC-COVINGTON CLEAR     22  14  71 CALM      30.41F
CINC-LUNKEN    CLEAR     17  15  92 CALM      30.46F
HAMILTON       CLEAR     15  12  88 CALM      30.44F
DAYTON         CLEAR     20  12  71 S5        30.40F WCI  13
WRIGHT-PAT AFB CLEAR     14  11  85 CALM      30.41F
DAYTON GENERAL CLEAR     19  12  74 S3        30.40F
WILMINGTON     CLEAR     16  12  84 CALM      30.40F
$$

OHZ036-037-039>041-045>050-054>059-063>069-073>076-082>088-310700-
  CENTRAL AND SOUTHEAST OHIO

CITY           SKY/WX    TMP DP  RH WIND       PRES   REMARKS
COLUMBUS       PTCLDY    14   9  80 SE3       30.42F
OSU AIRPORT    CLEAR     15   9  76 S3        30.41F
BOLTON FIELD   NOT AVBL
RICKENBACK AFB NOT AVBL
NEWARK         CLEAR      8   4  83 CALM      30.41F
MARION         PTCLDY     8   5  87 S6        30.39F WCI  -2
LANCASTER      CLEAR     10   6  84 CALM      30.43S
ZANESVILLE     CLEAR      7   2  80 CALM      30.43S
NEW PHILLY     PTCLDY     5   0  79 CALM      30.43S
$$



USA.gov is the U.S. government's official web portal to all federal, state and local government web resources and services.